| time (UTC) | temp F | wind direction | speed MPH | gust MPH | rain 1hr in | rain 24hr in | rain mn in | humidity % | barometer mb |
| 20260903143530 | 88 | 41 | 1.0 | 3.0 | 0.00 | 0.00 | 0.00 | 80 | 1017.2 |
| 20260903142538 | 88 | 7 | 2.0 | 4.0 | 0.00 | 0.00 | 0.00 | 81 | 1017.2 |
| 20260903141527 | 88 | 348 | 2.0 | 5.0 | 0.00 | 0.00 | 0.00 | 78 | 1017.2 |
| 20260903140535 | 85 | 0.0 | 0.0 | 0.00 | 0.00 | 0.00 | 82 | 1017.2 | |
| 20260903135545 | 84 | 0.0 | 0.0 | 0.00 | 0.00 | 0.00 | 84 | 1017.3 | |
| 20260903134534 | 83 | 0.0 | 0.0 | 0.00 | 0.00 | 0.00 | 86 | 1017.3 | |
| 20260903133522 | 82 | 0.0 | 0.0 | 0.00 | 0.00 | 0.00 | 92 | 1017.3 | |
| 20260903132530 | 81 | 0.0 | 0.0 | 0.00 | 0.00 | 0.00 | 96 | 1017.3 | |
| 20260903131520 | 80 | 18 | 0.0 | 2.0 | 0.00 | 0.00 | 0.00 | 97 | 1017.3 |
| 20260903130527 | 80 | 0.0 | 0.0 | 0.00 | 0.00 | 0.00 | 97 | 1017.3 | |
| 20260903125535 | 79 | 0.0 | 0.0 | 0.00 | 0.00 | 0.00 | 98 | 1017.3 | |
| 20260903124525 | 79 | 0.0 | 0.0 | 0.00 | 0.00 | 0.00 | 98 | 1017.2 | |
| 20260903123533 | 78 | 0.0 | 0.0 | 0.00 | 0.00 | 0.00 | 98 | 1017.1 | |
| 20260903122543 | 78 | 0.0 | 0.0 | 0.00 | 0.00 | 0.00 | 98 | 1017.2 | |
| 20260903121551 | 77 | 0.0 | 0.0 | 0.00 | 0.00 | 0.00 | 98 | 1017.1 | |
| 20260903120520 | 77 | 0.0 | 0.0 | 0.00 | 0.00 | 0.00 | 98 | 1017.1 | |
| 20260903115528 | 77 | 0.0 | 0.0 | 0.00 | 0.00 | 0.00 | 98 | 1017.0 | |
| 20260903114536 | 77 | 0.0 | 0.0 | 0.00 | 0.00 | 0.00 | 98 | 1017.0 | |
| 20260903113526 | 77 | 0.0 | 0.0 | 0.00 | 0.00 | 0.00 | 98 | 1016.8 | |
| 20260903112534 | 77 | 0.0 | 0.0 | 0.00 | 0.00 | 0.00 | 98 | 1016.7 | |
| 20260903111523 | 77 | 0.0 | 0.0 | 0.00 | 0.00 | 0.00 | 98 | 1016.4 | |
| 20260903110551 | 77 | 0.0 | 0.0 | 0.00 | 0.00 | 0.00 | 98 | 1016.4 | |
| 20260903105541 | 78 | 0.0 | 0.0 | 0.00 | 0.00 | 0.00 | 98 | 1016.4 | |
| 20260903104609 | 78 | 0.0 | 0.0 | 0.00 | 0.00 | 0.00 | 98 | 1016.3 | |
| 20260903103537 | 78 | 0.0 | 0.0 | 0.00 | 0.00 | 0.00 | 97 | 1016.3 | |
| 20260903102526 | 78 | 0.0 | 0.0 | 0.00 | 0.00 | 0.00 | 97 | 1016.2 | |
| 20260903101555 | 78 | 0.0 | 0.0 | 0.00 | 0.00 | 0.00 | 97 | 1016.2 | |
| 20260903100524 | 78 | 0.0 | 0.0 | 0.00 | 0.00 | 0.00 | 97 | 1016.2 | |
| 20260903095532 | 78 | 0.0 | 0.0 | 0.00 | 0.00 | 0.00 | 97 | 1016.2 | |
| 20260903094521 | 78 | 0.0 | 0.0 | 0.00 | 0.00 | 0.00 | 97 | 1016.1 | |
| 20260903093529 | 78 | 0.0 | 0.0 | 0.00 | 0.00 | 0.00 | 97 | 1016.0 | |
| 20260903092537 | 78 | 0.0 | 0.0 | 0.00 | 0.00 | 0.00 | 97 | 1016.0 | |
| 20260903091527 | 78 | 0.0 | 0.0 | 0.00 | 0.00 | 0.00 | 96 | 1016.1 | |
| 20260903090535 | 78 | 0.0 | 0.0 | 0.00 | 0.00 | 0.00 | 96 | 1016.1 | |
| 20260903085524 | 78 | 0.0 | 0.0 | 0.00 | 0.00 | 0.00 | 96 | 1016.0 | |
| 20260903084532 | 78 | 0.0 | 0.0 | 0.00 | 0.00 | 0.00 | 96 | 1016.1 | |
| 20260903083524 | 78 | 0.0 | 0.0 | 0.00 | 0.00 | 0.00 | 96 | 1016.1 | |
| 20260903082550 | 78 | 0.0 | 0.0 | 0.00 | 0.00 | 0.00 | 96 | 1016.2 | |
| 20260903081519 | 78 | 0.0 | 0.0 | 0.00 | 0.00 | 0.00 | 95 | 1016.1 | |
| 20260903080527 | 78 | 0.0 | 0.0 | 0.00 | 0.00 | 0.00 | 95 | 1016.1 | |
| 20260903075535 | 78 | 0.0 | 0.0 | 0.00 | 0.00 | 0.00 | 95 | 1016.1 | |
| 20260903074527 | 78 | 0.0 | 0.0 | 0.00 | 0.00 | 0.00 | 95 | 1016.1 | |
| 20260903073532 | 79 | 0.0 | 0.0 | 0.00 | 0.00 | 0.00 | 94 | 1016.1 | |
| 20260903072522 | 79 | 0.0 | 0.0 | 0.00 | 0.00 | 0.00 | 94 | 1016.2 | |
| 20260903071530 | 79 | 0.0 | 0.0 | 0.00 | 0.00 | 0.00 | 94 | 1016.4 | |
| 20260903070748 | 0 | 0.0 | 0.0 | 0.00 | 0.00 | 0.00 | 1016.5 | ||
| 20260903070522 | 79 | 0.0 | 0.0 | 0.00 | 0.00 | 0.00 | 94 | 1016.5 | |
| 20260903065527 | 79 | 0.0 | 0.0 | 0.00 | 0.00 | 0.00 | 94 | 1016.6 | |
| 20260903064536 | 79 | 0.0 | 0.0 | 0.00 | 0.00 | 0.00 | 94 | 1016.6 | |
| 20260903063525 | 79 | 0.0 | 0.0 | 0.00 | 0.00 | 0.00 | 93 | 1016.7 | |
| 20260903062533 | 80 | 0.0 | 0.0 | 0.00 | 0.00 | 0.00 | 93 | 1016.9 | |
| 20260903061523 | 80 | 0.0 | 0.0 | 0.00 | 0.00 | 0.00 | 93 | 1016.8 | |
| 20260903060531 | 80 | 0.0 | 0.0 | 0.00 | 0.00 | 0.00 | 93 | 1016.9 | |
| 20260903055520 | 80 | 0.0 | 0.0 | 0.00 | 0.00 | 0.00 | 92 | 1016.9 | |
| 20260903054528 | 80 | 0.0 | 0.0 | 0.00 | 0.00 | 0.00 | 92 | 1017.0 | |
| 20260903053536 | 80 | 0.0 | 0.0 | 0.00 | 0.00 | 0.00 | 91 | 1017.0 | |
| 20260903052526 | 80 | 0.0 | 0.0 | 0.00 | 0.00 | 0.00 | 91 | 1017.1 | |
| 20260903051534 | 80 | 0.0 | 0.0 | 0.00 | 0.00 | 0.00 | 91 | 1017.1 | |
| 20260903050523 | 81 | 0.0 | 0.0 | 0.00 | 0.00 | 0.00 | 91 | 1017.1 | |
| 20260903045531 | 81 | 0.0 | 0.0 | 0.00 | 0.00 | 0.00 | 90 | 1017.1 | |
| 20260903044521 | 81 | 0.0 | 0.0 | 0.00 | 0.00 | 0.00 | 90 | 1017.3 | |
| 20260903043549 | 81 | 0.0 | 0.0 | 0.00 | 0.00 | 0.00 | 90 | 1017.4 | |
| 20260903042537 | 81 | 0.0 | 0.0 | 0.00 | 0.00 | 0.00 | 89 | 1017.3 | |
| 20260903041526 | 81 | 0.0 | 0.0 | 0.00 | 0.00 | 0.00 | 89 | 1017.3 | |
| 20260903040534 | 81 | 0.0 | 0.0 | 0.00 | 0.00 | 0.00 | 89 | 1017.3 | |
| 20260903035524 | 82 | 0.0 | 0.0 | 0.00 | 0.00 | 0.00 | 88 | 1017.3 | |
| 20260903034532 | 82 | 0.0 | 0.0 | 0.00 | 0.00 | 0.00 | 88 | 1017.4 | |
| 20260903033521 | 82 | 0.0 | 0.0 | 0.00 | 0.00 | 0.00 | 87 | 1017.4 | |
| 20260903032529 | 82 | 0.0 | 0.0 | 0.00 | 0.00 | 0.00 | 87 | 1017.4 | |
| 20260903031537 | 82 | 0.0 | 0.0 | 0.00 | 0.00 | 0.00 | 87 | 1017.5 | |
| 20260903030527 | 83 | 0.0 | 0.0 | 0.00 | 0.00 | 0.00 | 86 | 1017.4 | |
| 20260903025535 | 83 | 0.0 | 0.0 | 0.00 | 0.00 | 0.00 | 86 | 1017.5 | |
| 20260903024524 | 83 | 0.0 | 0.0 | 0.00 | 0.00 | 0.00 | 86 | 1017.4 | |
| 20260903023552 | 83 | 0.0 | 0.0 | 0.00 | 0.00 | 0.00 | 86 | 1017.4 | |
| 20260903022602 | 83 | 180 | 0.0 | 1.0 | 0.00 | 0.00 | 0.00 | 85 | 1017.3 |
| 20260903021550 | 84 | 0.0 | 0.0 | 0.00 | 0.00 | 0.00 | 84 | 1017.2 | |
| 20260903020519 | 84 | 135 | 0.0 | 2.0 | 0.00 | 0.00 | 0.00 | 84 | 1017.1 |
| 20260903015527 | 84 | 0.0 | 0.0 | 0.00 | 0.00 | 0.00 | 82 | 1017.0 | |
| 20260903014535 | 85 | 134 | 1.0 | 3.0 | 0.00 | 0.00 | 0.00 | 82 | 1016.9 |
| 20260903013524 | 85 | 0.0 | 0.0 | 0.00 | 0.00 | 0.00 | 81 | 1016.8 | |
| 20260903012532 | 85 | 270 | 0.0 | 2.0 | 0.00 | 0.00 | 0.00 | 81 | 1016.7 |
| 20260903011522 | 85 | 0.0 | 0.0 | 0.00 | 0.00 | 0.00 | 80 | 1016.6 | |
| 20260903010530 | 86 | 0.0 | 0.0 | 0.00 | 0.00 | 0.00 | 80 | 1016.4 | |
| 20260903005519 | 86 | 0.0 | 0.0 | 0.00 | 0.00 | 0.00 | 79 | 1016.3 | |
| 20260903004527 | 86 | 145 | 2.0 | 4.0 | 0.00 | 0.00 | 0.00 | 77 | 1016.2 |
| 20260903003536 | 87 | 98 | 0.0 | 2.0 | 0.00 | 0.00 | 0.00 | 76 | 1016.2 |
| 20260903002525 | 87 | 145 | 1.0 | 2.0 | 0.00 | 0.00 | 0.00 | 76 | 1016.1 |
| 20260903001533 | 87 | 145 | 1.0 | 3.0 | 0.00 | 0.00 | 0.00 | 76 | 1016.2 |
| 20260903000523 | 88 | 135 | 1.0 | 3.0 | 0.00 | 0.00 | 0.00 | 75 | 1016.2 |
| 20260902235531 | 88 | 164 | 1.0 | 2.0 | 0.00 | 0.00 | 0.00 | 73 | 1016.3 |
| 20260902234520 | 88 | 158 | 2.0 | 4.0 | 0.00 | 0.00 | 0.00 | 73 | 1016.2 |
| 20260902233548 | 89 | 0.0 | 0.0 | 0.00 | 0.00 | 0.00 | 71 | 1016.3 | |
| 20260902232536 | 89 | 147 | 3.0 | 4.0 | 0.00 | 0.00 | 0.00 | 71 | 1016.3 |
| 20260902231526 | 89 | 226 | 3.0 | 5.0 | 0.00 | 0.00 | 0.00 | 70 | 1016.3 |
| 20260902230533 | 90 | 217 | 2.0 | 4.0 | 0.00 | 0.00 | 0.00 | 70 | 1016.2 |
| 20260902225523 | 91 | 189 | 0.0 | 2.0 | 0.00 | 0.00 | 0.00 | 68 | 1016.2 |
| 20260902224551 | 92 | 218 | 1.0 | 5.0 | 0.00 | 0.00 | 0.00 | 66 | 1016.2 |
| 20260902223520 | 92 | 221 | 2.0 | 5.0 | 0.00 | 0.00 | 0.00 | 65 | 1016.3 |
| 20260902222529 | 92 | 185 | 3.0 | 4.0 | 0.00 | 0.00 | 0.00 | 66 | 1016.4 |
| 20260902221536 | 92 | 133 | 2.0 | 4.0 | 0.00 | 0.00 | 0.00 | 67 | 1016.5 |
| 20260902220525 | 92 | 138 | 2.0 | 5.0 | 0.00 | 0.00 | 0.00 | 68 | 1016.6 |
| 20260902215554 | 91 | 160 | 2.0 | 4.0 | 0.00 | 0.00 | 0.00 | 69 | 1016.7 |
| 20260902214523 | 89 | 162 | 2.0 | 4.0 | 0.00 | 0.00 | 0.00 | 71 | 1016.8 |
| 20260902213531 | 88 | 160 | 5.0 | 5.0 | 0.00 | 0.00 | 0.00 | 72 | 1017.0 |
| 20260902212521 | 86 | 155 | 2.0 | 4.0 | 0.00 | 0.00 | 0.00 | 77 | 1016.9 |
| 20260902211528 | 87 | 159 | 4.0 | 6.0 | 0.00 | 0.00 | 0.00 | 77 | 1017.0 |
| 20260902210537 | 87 | 177 | 2.0 | 4.0 | 0.00 | 0.00 | 0.00 | 75 | 1017.1 |
| 20260902205526 | 87 | 207 | 2.0 | 3.0 | 0.00 | 0.00 | 0.00 | 76 | 1017.1 |
| 20260902204534 | 87 | 174 | 3.0 | 6.0 | 0.00 | 0.00 | 0.00 | 76 | 1017.3 |
| 20260902203523 | 88 | 201 | 3.0 | 6.0 | 0.00 | 0.00 | 0.00 | 73 | 1017.3 |
| 20260902202531 | 89 | 63 | 4.0 | 7.0 | 0.00 | 0.00 | 0.00 | 71 | 1017.4 |
| 20260902201521 | 93 | 129 | 4.0 | 7.0 | 0.00 | 0.00 | 0.00 | 65 | 1017.3 |
| 20260902195537 | 95 | 153 | 3.0 | 5.0 | 0.00 | 0.00 | 0.00 | 61 | 1017.1 |
| 20260902194526 | 96 | 126 | 3.0 | 5.0 | 0.00 | 0.00 | 0.00 | 58 | 1017.3 |
| 20260902193534 | 96 | 52 | 2.0 | 5.0 | 0.00 | 0.00 | 0.00 | 54 | 1017.3 |
| 20260902192523 | 96 | 144 | 3.0 | 5.0 | 0.00 | 0.00 | 0.00 | 53 | 1017.4 |
| 20260902191534 | 96 | 158 | 3.0 | 5.0 | 0.00 | 0.00 | 0.00 | 56 | 1017.4 |
| 20260902190521 | 95 | 127 | 4.0 | 5.0 | 0.00 | 0.00 | 0.00 | 57 | 1017.6 |
| 20260902185629 | 95 | 84 | 3.0 | 5.0 | 0.00 | 0.00 | 0.00 | 58 | 1017.7 |
| 20260902184538 | 95 | 103 | 2.0 | 5.0 | 0.00 | 0.00 | 0.00 | 63 | 1018.0 |
| 20260902183526 | 94 | 39 | 2.0 | 3.0 | 0.00 | 0.00 | 0.00 | 68 | 1018.2 |
| 20260902182535 | 94 | 22 | 3.0 | 5.0 | 0.00 | 0.00 | 0.00 | 67 | 1018.1 |
| 20260902181524 | 91 | 60 | 2.0 | 3.0 | 0.00 | 0.00 | 0.00 | 70 | 1018.1 |
| 20260902180532 | 92 | 91 | 2.0 | 4.0 | 0.00 | 0.00 | 0.00 | 69 | 1018.1 |
| 20260902175521 | 91 | 19 | 3.0 | 5.0 | 0.00 | 0.00 | 0.00 | 69 | 1018.2 |
| 20260902174530 | 92 | 28 | 2.0 | 4.0 | 0.00 | 0.00 | 0.00 | 68 | 1018.4 |
| 20260902173537 | 94 | 1 | 3.0 | 5.0 | 0.00 | 0.00 | 0.00 | 65 | 1018.4 |
| 20260902172526 | 93 | 23 | 2.0 | 4.0 | 0.00 | 0.00 | 0.00 | 68 | 1018.8 |
| 20260902171534 | 93 | 76 | 3.0 | 7.0 | 0.00 | 0.00 | 0.00 | 67 | 1019.0 |
| 20260902170524 | 93 | 51 | 2.0 | 4.0 | 0.00 | 0.00 | 0.00 | 68 | 1019.1 |
| 20260902165532 | 92 | 18 | 3.0 | 5.0 | 0.00 | 0.00 | 0.00 | 68 | 1019.2 |
| 20260902164521 | 92 | 22 | 3.0 | 4.0 | 0.00 | 0.00 | 0.00 | 69 | 1019.1 |
| 20260902163529 | 91 | 38 | 3.0 | 4.0 | 0.00 | 0.00 | 0.00 | 71 | 1019.3 |
| 20260902162557 | 89 | 10 | 2.0 | 4.0 | 0.00 | 0.00 | 0.00 | 74 | 1019.4 |
| 20260902161526 | 91 | 126 | 1.0 | 3.0 | 0.00 | 0.00 | 0.00 | 73 | 1019.4 |
| 20260902160535 | 89 | 23 | 1.0 | 4.0 | 0.00 | 0.00 | 0.00 | 75 | 1019.4 |
| 20260902155545 | 89 | 5 | 4.0 | 7.0 | 0.00 | 0.00 | 0.00 | 77 | 1019.5 |
| 20260902154532 | 88 | 15 | 3.0 | 4.0 | 0.00 | 0.00 | 0.00 | 79 | 1019.5 |
| 20260902153541 | 90 | 56 | 2.0 | 4.0 | 0.00 | 0.00 | 0.00 | 74 | 1019.5 |
| 20260902152529 | 90 | 45 | 0.0 | 3.0 | 0.00 | 0.00 | 0.00 | 75 | 1019.5 |
| 20260902151519 | 90 | 17 | 2.0 | 3.0 | 0.00 | 0.00 | 0.00 | 76 | 1019.4 |
| 20260902150527 | 87 | 49 | 2.0 | 3.0 | 0.00 | 0.00 | 0.00 | 81 | 1019.4 |
| 20260902145534 | 87 | 116 | 1.0 | 4.0 | 0.00 | 0.00 | 0.00 | 81 | 1019.4 |
| 20260902144544 | 88 | 68 | 0.0 | 2.0 | 0.00 | 0.00 | 0.00 | 77 | 1019.4 |